Retour au catalogue

TITAN 4B DEB

ActifLEO
NORAD 40528·DEBRIS·🇺🇸 United States

Lancé Aug 17, 2000 depuis Vandenberg Space Force Base

Loading…

Prochains Passages (prochaines 24 heures)

TLE

FraisSource: Space-Track

Époque: Sep 14, 2026, 04:48 UTC

1 40528U 00047E   26257.20058112  .00000328  00000-0  39099-4 0  9998
2 40528  67.9956 333.5007 0060576 233.1718 155.5362 14.96040917625947

Suivez TITAN 4B DEB en temps réel avec AllMySat

Download on the App Store